• En España
  • Lista de países
  • Para 7 días
  • Temperatura del agua
  • Mapa Satelital
  • El tiempo en el mapa
  • Informadores
  • user-avatar
    Iniciar sesión

    Tiempo cada hora Verh-Kultym

    Hoy, 17 Agosto, Viernes

    Tiempo Temperatura Precipitaciones Viento Presión Humedad
    00:00 +14°C° 0,1 mm 3 mps 741 mmHg 97%
    01:00 +14°C° 0,1 mm 3 mps 741 mmHg 97%
    02:00 +13°C° 0,1 mm 4 mps 741 mmHg 97%
    03:00 +13°C° 0,1 mm 4 mps 741 mmHg 97%
    04:00 +12°C° 0 mm 4 mps 742 mmHg 97%
    05:00 +12°C° 0,1 mm 4 mps 742 mmHg 97%
    06:00 +12°C° 0,1 mm 4 mps 743 mmHg 96%
    07:00 +10°C° 0,1 mm 5 mps 743 mmHg 95%
    08:00 +12°C° 0,1 mm 5 mps 744 mmHg 90%
    09:00 +13°C° 0,1 mm 5 mps 744 mmHg 86%
    10:00 +13°C° 0,1 mm 5 mps 745 mmHg 81%
    11:00 +15°C° 0,1 mm 5 mps 745 mmHg 75%
    12:00 +16°C° 0,1 mm 5 mps 745 mmHg 70%
    13:00 +17°C° 0,1 mm 5 mps 746 mmHg 64%
    14:00 +18°C° 0,1 mm 4 mps 746 mmHg 61%
    15:00 +18°C° 0,1 mm 4 mps 746 mmHg 57%
    16:00 +19°C° 0,1 mm 4 mps 746 mmHg 54%
    17:00 +17°C° 0 mm 3 mps 746 mmHg 61%
    18:00 +16°C° 0 mm 3 mps 746 mmHg 68%
    19:00 +14°C° 0 mm 3 mps 746 mmHg 75%
    20:00 +13°C° 0 mm 2 mps 746 mmHg 82%
    21:00 +12°C° 0 mm 2 mps 746 mmHg 89%
    22:00 +9°C° 0 mm 2 mps 747 mmHg 95%
    23:00 +9°C° 0 mm 2 mps 747 mmHg 96%

    Mañana, 18 Agosto, Sábado

    Tiempo Temperatura Precipitaciones Viento Presión Humedad
    00:00 +8°C° 0 mm 2 mps 747 mmHg 97%
    01:00 +8°C° 0 mm 2 mps 747 mmHg 97%
    02:00 +8°C° 0 mm 2 mps 747 mmHg 98%
    03:00 +7°C° 0 mm 2 mps 747 mmHg 98%
    04:00 +7°C° 0 mm 2 mps 748 mmHg 98%
    05:00 +8°C° 0 mm 2 mps 748 mmHg 96%
    06:00 +8°C° 0 mm 3 mps 748 mmHg 93%
    07:00 +9°C° 0 mm 3 mps 748 mmHg 91%
    08:00 +11°C° 0 mm 3 mps 748 mmHg 83%
    09:00 +12°C° 0 mm 3 mps 748 mmHg 75%
    10:00 +14°C° 0 mm 4 mps 749 mmHg 67%
    11:00 +15°C° 0 mm 4 mps 748 mmHg 63%
    12:00 +17°C° 0 mm 4 mps 748 mmHg 59%
    13:00 +17°C° 0 mm 4 mps 748 mmHg 55%
    14:00 +17°C° 0 mm 4 mps 748 mmHg 55%
    15:00 +18°C° 0 mm 4 mps 748 mmHg 54%
    16:00 +18°C° 0 mm 3 mps 749 mmHg 54%
    17:00 +16°C° 0 mm 3 mps 749 mmHg 60%
    18:00 +14°C° 0 mm 3 mps 749 mmHg 67%
    19:00 +14°C° 0 mm 2 mps 749 mmHg 73%
    20:00 +12°C° 0 mm 2 mps 749 mmHg 79%
    21:00 +10°C° 0 mm 2 mps 750 mmHg 84%
    22:00 +9°C° 0 mm 2 mps 750 mmHg 89%
    23:00 +8°C° 0 mm 2 mps 750 mmHg 91%

    Pasado mañana, 19 Agosto, Domingo

    Tiempo Temperatura Precipitaciones Viento Presión Humedad
    00:00 +8°C° 0 mm 1 mps 750 mmHg 93%
    01:00 +8°C° 0 mm 1 mps 750 mmHg 95%
    02:00 +8°C° 0 mm 1 mps 750 mmHg 95%
    03:00 +7°C° 0 mm 1 mps 751 mmHg 95%
    04:00 +7°C° 0 mm 1 mps 751 mmHg 95%
    05:00 +8°C° 0 mm 1 mps 751 mmHg 92%
    06:00 +9°C° 0 mm 1 mps 751 mmHg 88%
    07:00 +10°C° 0 mm 1 mps 751 mmHg 85%
    08:00 +12°C° 0 mm 1 mps 751 mmHg 77%
    09:00 +14°C° 0 mm 1 mps 751 mmHg 69%
    10:00 +16°C° 0 mm 1 mps 751 mmHg 61%
    11:00 +18°C° 0 mm 1 mps 751 mmHg 58%
    12:00 +19°C° 0 mm 1 mps 750 mmHg 54%
    13:00 +19°C° 0 mm 1 mps 750 mmHg 50%
    14:00 +19°C° 0 mm 1 mps 750 mmHg 49%
    15:00 +20°C° 0 mm 1 mps 749 mmHg 48%
    16:00 +20°C° 0 mm 1 mps 749 mmHg 47%
    17:00 +19°C° 0 mm 1 mps 749 mmHg 55%
    18:00 +16°C° 0 mm 1 mps 749 mmHg 63%
    19:00 +15°C° 0 mm 1 mps 749 mmHg 71%
    20:00 +13°C° 0 mm 1 mps 749 mmHg 75%
    21:00 +11°C° 0 mm 0 mps 749 mmHg 80%
    22:00 +10°C° 0 mm 0 mps 749 mmHg 85%
    23:00 +9°C° 0 mm 0 mps 749 mmHg 86%

    20 Agosto, Lunes

    Tiempo Temperatura Precipitaciones Viento Presión Humedad
    00:00 +9°C° 0 mm 0 mps 749 mmHg 87%
    01:00 +9°C° 0 mm 1 mps 749 mmHg 88%
    02:00 +9°C° 0 mm 1 mps 749 mmHg 89%
    03:00 +8°C° 0 mm 0 mps 749 mmHg 90%
    04:00 +8°C° 0 mm 0 mps 749 mmHg 90%
    05:00 +9°C° 0 mm 0 mps 749 mmHg 87%
    06:00 +11°C° 0 mm 1 mps 749 mmHg 83%
    07:00 +12°C° 0 mm 1 mps 749 mmHg 79%
    08:00 +14°C° 0 mm 1 mps 748 mmHg 73%
    09:00 +18°C° 0 mm 1 mps 748 mmHg 66%
    10:00 +20°C° 0 mm 1 mps 748 mmHg 60%
    11:00 +21°C° 0 mm 1 mps 748 mmHg 57%
    12:00 +21°C° 0 mm 2 mps 747 mmHg 55%
    13:00 +23°C° 0 mm 2 mps 747 mmHg 52%
    14:00 +21°C° 0,1 mm 2 mps 747 mmHg 55%
    15:00 +21°C° 0,1 mm 2 mps 746 mmHg 58%
    16:00 +21°C° 0,1 mm 2 mps 746 mmHg 62%
    17:00 +20°C° 0 mm 2 mps 746 mmHg 68%
    18:00 +19°C° 0 mm 2 mps 746 mmHg 75%
    19:00 +17°C° 0 mm 2 mps 746 mmHg 82%
    20:00 +16°C° 0 mm 2 mps 746 mmHg 85%
    21:00 +15°C° 0 mm 2 mps 745 mmHg 89%
    22:00 +14°C° 0 mm 2 mps 745 mmHg 93%
    23:00 +14°C° 0 mm 2 mps 745 mmHg 93%

    21 Agosto, Martes

    Tiempo Temperatura Precipitaciones Viento Presión Humedad
    00:00 +14°C° 0 mm 2 mps 745 mmHg 93%
    01:00 +13°C° 0 mm 2 mps 744 mmHg 93%
    02:00 +13°C° 0 mm 2 mps 744 mmHg 94%
    03:00 +13°C° 0 mm 2 mps 744 mmHg 95%
    04:00 +13°C° 0 mm 2 mps 744 mmHg 95%
    05:00 +13°C° 0,2 mm 2 mps 744 mmHg 95%
    06:00 +13°C° 0,2 mm 3 mps 744 mmHg 94%
    07:00 +13°C° 0,2 mm 3 mps 743 mmHg 94%
    08:00 +13°C° 1,3 mm 3 mps 743 mmHg 95%
    09:00 +13°C° 1,3 mm 3 mps 743 mmHg 96%
    10:00 +13°C° 1,3 mm 3 mps 743 mmHg 97%
    11:00 +14°C° 0,7 mm 3 mps 743 mmHg 95%
    12:00 +16°C° 0,7 mm 3 mps 742 mmHg 94%
    13:00 +17°C° 0,7 mm 3 mps 742 mmHg 92%
    14:00 +18°C° 0,1 mm 3 mps 742 mmHg 88%
    15:00 +19°C° 0,1 mm 3 mps 742 mmHg 84%
    16:00 +19°C° 0,1 mm 3 mps 742 mmHg 79%
    17:00 +19°C° 0 mm 3 mps 742 mmHg 82%
    18:00 +18°C° 0 mm 2 mps 742 mmHg 85%
    19:00 +17°C° 0 mm 2 mps 742 mmHg 88%
    20:00 +16°C° 0 mm 2 mps 743 mmHg 91%
    21:00 +15°C° 0 mm 2 mps 743 mmHg 93%
    22:00 +14°C° 0 mm 1 mps 743 mmHg 96%
    23:00 +13°C° 0 mm 1 mps 743 mmHg 96%

    22 Agosto, Miércoles

    Tiempo Temperatura Precipitaciones Viento Presión Humedad
    00:00 +13°C° 0 mm 1 mps 743 mmHg 97%
    01:00 +12°C° 0 mm 1 mps 743 mmHg 97%
    02:00 +12°C° 0 mm 1 mps 744 mmHg 97%
    03:00 +11°C° 0 mm 1 mps 744 mmHg 97%
    04:00 +11°C° 0 mm 1 mps 744 mmHg 97%
    05:00 +12°C° 0 mm 1 mps 744 mmHg 96%
    06:00 +12°C° 0 mm 1 mps 744 mmHg 94%
    07:00 +13°C° 0 mm 1 mps 744 mmHg 93%
    08:00 +15°C° 0 mm 1 mps 744 mmHg 84%
    09:00 +18°C° 0 mm 1 mps 744 mmHg 76%
    10:00 +19°C° 0 mm 1 mps 744 mmHg 67%
    11:00 +20°C° 0 mm 1 mps 744 mmHg 60%
    12:00 +21°C° 0 mm 1 mps 744 mmHg 53%
    13:00 +22°C° 0 mm 1 mps 743 mmHg 46%
    14:00 +22°C° 0 mm 1 mps 743 mmHg 47%
    15:00 +22°C° 0 mm 1 mps 743 mmHg 48%
    16:00 +22°C° 0 mm 1 mps 743 mmHg 50%
    17:00 +20°C° 0 mm 1 mps 743 mmHg 56%
    18:00 +19°C° 0 mm 1 mps 742 mmHg 63%
    19:00 +15°C° 0 mm 0 mps 742 mmHg 69%
    20:00 +15°C° 0 mm 0 mps 742 mmHg 69%
    21:00 +14°C° 0 mm 0 mps 742 mmHg 70%
    22:00 +14°C° 0 mm 0 mps 742 mmHg 70%
    23:00 +13°C° 0 mm 0 mps 742 mmHg 72%
    Mostrar más